Date,TemperatureHighF,TemperatureAvgF,TemperatureLowF,DewpointHighF,DewpointAvgF,DewpointLowF,HumidityHigh,HumidityAvg,HumidityLow,PressureMaxIn,PressureMinIn,WindSpeedMaxMPH,WindSpeedAvgMPH,GustSpeedMaxMPH,PrecipitationSumIn
2013-5-1,87,66,45,-100,-100,-100,0,0,100,0.00,40.00,0,-999,0,0.00
2013-5-2,88,69,47,-100,-100,-100,0,0,100,0.00,40.00,0,-999,0,0.00
2013-5-3,80,64,45,-100,-100,-100,0,0,100,0.00,40.00,0,-999,0,0.00
2013-5-4,85,68,46,-100,-100,-100,0,0,100,0.00,40.00,0,-999,0,0.00
2013-5-5,86,68,47,-100,-100,-100,0,0,100,0.00,40.00,0,-999,0,0.00
2013-5-6,87,68,47,-100,-100,-100,0,0,100,0.00,40.00,0,-999,0,0.00
2013-5-7,92,69,47,-100,-100,-100,0,0,100,0.00,40.00,0,-999,0,0.00
2013-5-8,87,69,51,-100,-100,-100,0,0,100,0.00,40.00,0,-999,0,0.00
2013-5-9,81,71,65,-100,-100,-100,0,0,100,0.00,40.00,0,-999,0,0.04
2013-5-10,83,70,64,-100,-100,-100,0,0,100,0.00,40.00,0,-999,0,0.02
2013-5-11,75,69,63,-100,-100,-100,0,0,100,0.00,40.00,0,-999,0,0.07
2013-5-12,71,62,45,-100,-100,-100,0,0,100,0.00,40.00,0,-999,0,0.01
2013-5-13,57,51,43,-100,-100,-100,0,0,100,0.00,40.00,0,-999,0,0.00
2013-5-14,62,50,40,-100,-100,-100,0,0,100,0.00,40.00,0,-999,0,0.02
2013-5-15,73,46,34,-100,-100,-100,0,0,100,0.00,40.00,0,-999,0,0.10
2013-5-16,81,62,55,-100,-100,-100,0,0,100,0.00,40.00,0,-999,0,0.07
2013-5-17,71,61,54,-100,-100,-100,0,0,100,0.00,40.00,0,-999,0,0.01
2013-5-18,78,59,46,-100,-100,-100,0,0,100,0.00,40.00,0,-999,0,0.01
2013-5-19,77,62,49,-100,-100,-100,0,0,100,0.00,40.00,0,-999,0,0.11
2013-5-20,77,68,62,-100,-100,-100,0,0,100,0.00,40.00,0,-999,0,0.15
2013-5-21,79,68,61,-100,-100,-100,0,0,100,0.00,40.00,0,-999,0,0.29
2013-5-22,80,69,60,-100,-100,-100,0,0,100,0.00,40.00,0,-999,0,0.42
2013-5-23,83,74,67,-100,-100,-100,0,0,100,0.00,40.00,0,-999,0,0.17
2013-5-24,75,62,54,-100,-100,-100,0,0,100,0.00,40.00,0,-999,0,0.18
2013-5-25,54,49,40,-100,-100,-100,0,0,100,0.00,40.00,0,-999,0,0.50
2013-5-26,58,50,41,-100,-100,-100,0,0,100,0.00,40.00,0,-999,0,0.40
2013-5-27,72,56,42,-100,-100,-100,0,0,100,0.00,40.00,0,-999,0,0.01
2013-5-28,81,61,44,-100,-100,-100,0,0,100,0.00,40.00,0,-999,0,0.00
2013-5-29,70,63,57,-100,-100,-100,0,0,100,0.00,40.00,0,-999,0,0.10
2013-5-30,92,78,69,-100,-100,-100,0,0,100,0.00,40.00,0,-999,0,0.01
2013-5-31,99,81,66,-100,-100,-100,0,0,100,0.00,40.00,0,-999,0,0.01